OneWeb SL0135

operational
NORAD ID: 47259 Int'l Des: 2020-100 Owner: ONEWEB Country: UK Constellation: oneweb
LEOCIRCULARPOLARONEWEB_TYPE

Über OneWeb SL0135

Beschreibung wird geladen...

Live-Position

3D-Globus wird geladen...

Nächste Überflüge

Höhenverlauf

Altitude vs Time

uPlot chart will show altitude changes over time

Zweizeiliger Elementsatz

1 47259U 20100B 26035.48976582 .00000087 00000-0 20562-3 0 9998
2 47259 87.8950 16.9943 0001816 89.6500 270.4837 13.12441706247151
Epoch: 4. Feb. 2026 • Age: 20 hours

Aktueller Status

Höhe 1221.9 km
Geschwindigkeit 7.24 km/s
Subsatellitenpunkt -20.61°S, 123.91°E
Startdatum 18. Dez. 2020
Alter 5.1 years
Typ internet

Technische Details

Klassifizierung Payload
Masse 148.00 kg
Trockenmasse 140.00 kg
Gesamtmasse 148.00 kg
Länge 1.30 m
Durchmesser 1.00 m
Spannweite 5.00 m
Form Trapezoid+2 pan
Hersteller ONEWUS
Bus-Typ ARROW
Phasenstatus In Orbit
Besitzer/Staat ONEWEB/UK

Große Konstellationen

Loading constellations...